sat.trackr.live / text

‹ back to catalog

STARLINK-11641 [DTC]

NORAD 63268 · 2025-053D

PAYLOAD ACTIVE UNKNOWN

§ Identity

Operator
Country
US
Launch date
2025-03-15
Launch site
AFETR
Launch vehicle
Mass (kg)
RCS (m²)

Purposes: comms

External: N2YO · Heavens-Above · Gunter

§ Orbital elements

Epoch: 2026-05-24T23:48:39.484224Z

Period
91.67 min
Inclination
43.0026°
Eccentricity
0.0002260
Mean motion
15.70890890 rev/d
Perigee alt
354.8 km
Apogee alt
357.9 km
Semi-major
6,734.5 km
B*
1.3044e-3
RAAN
11.9654°
Arg perigee
277.4221°
Mean anomaly
82.6390°
Rev number
6,967

§ Raw data

STARLINK-11641 [DTC]1 63268U 25053D   26144.99212366  .00170775  00000+0  13044-2 0  99952 63268  43.0026  11.9654 0002260 277.4221  82.6390 15.70890890 69676

JSON: /api/v1/satellites/63268 · /tle

For live sub-satellite position, see the globe view (requires WebGL).

§ Visibility from observer

Set your observer location to see the next 7 days of passes ≥ 10°. The values pass through the URL so the page stays shareable.

No JS? Fill the form by hand. The geolocation button needs JavaScript.